Hourly Weather Kitaevka

Today, 24 October, Saturday

Time Temperature Precipitation Wind Pressure Humidity
00:00 +2°C° 0 mm 1 mps 703 mmHg 75%
01:00 +2°C° 0 mm 1 mps 703 mmHg 74%
02:00 +2°C° 0 mm 1 mps 703 mmHg 73%
03:00 +2°C° 0 mm 1 mps 703 mmHg 72%
04:00 +2°C° 0 mm 1 mps 703 mmHg 72%
05:00 +2°C° 0 mm 1 mps 703 mmHg 71%
06:00 +3°C° 0 mm 1 mps 704 mmHg 67%
07:00 +3°C° 0 mm 1 mps 704 mmHg 64%
08:00 +3°C° 0 mm 2 mps 704 mmHg 61%
09:00 +5°C° 0 mm 1 mps 704 mmHg 55%
10:00 +7°C° 0 mm 1 mps 705 mmHg 48%
11:00 +9°C° 0 mm 1 mps 705 mmHg 42%
12:00 +10°C° 0 mm 1 mps 704 mmHg 39%
13:00 +10°C° 0 mm 1 mps 704 mmHg 37%
14:00 +10°C° 0 mm 2 mps 704 mmHg 34%
15:00 +10°C° 0 mm 1 mps 704 mmHg 36%
16:00 +10°C° 0 mm 1 mps 704 mmHg 38%
17:00 +9°C° 0 mm 1 mps 704 mmHg 40%
18:00 +8°C° 0 mm 1 mps 704 mmHg 44%
19:00 +7°C° 0 mm 1 mps 704 mmHg 48%
20:00 +6°C° 0 mm 1 mps 704 mmHg 52%
21:00 +6°C° 0 mm 1 mps 704 mmHg 54%
22:00 +5°C° 0 mm 1 mps 704 mmHg 56%
23:00 +5°C° 0 mm 1 mps 703 mmHg 59%

Tomorrow, 25 October, Sunday

Time Temperature Precipitation Wind Pressure Humidity
00:00 +4°C° 0 mm 1 mps 703 mmHg 59%
01:00 +4°C° 0 mm 1 mps 703 mmHg 59%
02:00 +4°C° 0 mm 1 mps 703 mmHg 59%
03:00 +4°C° 0 mm 1 mps 703 mmHg 59%
04:00 +4°C° 0 mm 1 mps 703 mmHg 60%
05:00 +4°C° 0 mm 1 mps 703 mmHg 60%
06:00 +5°C° 0 mm 1 mps 703 mmHg 57%
07:00 +5°C° 0 mm 1 mps 704 mmHg 53%
08:00 +6°C° 0 mm 1 mps 704 mmHg 49%
09:00 +8°C° 0 mm 1 mps 704 mmHg 44%
10:00 +9°C° 0 mm 2 mps 705 mmHg 38%
11:00 +12°C° 0 mm 2 mps 705 mmHg 33%
12:00 +13°C° 0 mm 2 mps 705 mmHg 31%
13:00 +13°C° 0 mm 3 mps 704 mmHg 29%
14:00 +13°C° 0 mm 3 mps 704 mmHg 28%
15:00 +13°C° 0 mm 2 mps 704 mmHg 30%
16:00 +12°C° 0 mm 1 mps 704 mmHg 33%
17:00 +10°C° 0 mm 0 mps 704 mmHg 35%
18:00 +10°C° 0 mm 1 mps 703 mmHg 38%
19:00 +9°C° 0 mm 1 mps 703 mmHg 40%
20:00 +8°C° 0 mm 1 mps 703 mmHg 42%
21:00 +8°C° 0 mm 1 mps 703 mmHg 43%
22:00 +6°C° 0 mm 2 mps 702 mmHg 45%
23:00 +6°C° 0 mm 2 mps 702 mmHg 46%

Day after tomorrow, 26 October, Monday

Time Temperature Precipitation Wind Pressure Humidity
00:00 +6°C° 0 mm 2 mps 702 mmHg 47%
01:00 +7°C° 0 mm 1 mps 701 mmHg 48%
02:00 +7°C° 0 mm 1 mps 701 mmHg 49%
03:00 +7°C° 0 mm 1 mps 701 mmHg 49%
04:00 +7°C° 0 mm 1 mps 701 mmHg 49%
05:00 +7°C° 0 mm 1 mps 700 mmHg 49%
06:00 +8°C° 0 mm 1 mps 700 mmHg 45%
07:00 +9°C° 0 mm 1 mps 700 mmHg 42%
08:00 +9°C° 0 mm 2 mps 700 mmHg 38%
09:00 +12°C° 0 mm 2 mps 701 mmHg 33%
10:00 +13°C° 0 mm 3 mps 701 mmHg 28%
11:00 +15°C° 0 mm 4 mps 701 mmHg 23%
12:00 +16°C° 0 mm 5 mps 700 mmHg 22%
13:00 +16°C° 0 mm 5 mps 700 mmHg 22%
14:00 +17°C° 0 mm 6 mps 699 mmHg 22%
15:00 +16°C° 0 mm 5 mps 699 mmHg 24%
16:00 +15°C° 0 mm 5 mps 699 mmHg 26%
17:00 +13°C° 0 mm 4 mps 698 mmHg 28%
18:00 +12°C° 0 mm 4 mps 698 mmHg 31%
19:00 +11°C° 0 mm 4 mps 698 mmHg 33%
20:00 +11°C° 0 mm 3 mps 698 mmHg 35%
21:00 +11°C° 0 mm 3 mps 698 mmHg 34%
22:00 +11°C° 0 mm 4 mps 698 mmHg 34%
23:00 +11°C° 0 mm 4 mps 697 mmHg 34%

, 27 October, Tuesday

Time Temperature Precipitation Wind Pressure Humidity
00:00 +10°C° 0 mm 4 mps 697 mmHg 34%
01:00 +10°C° 0 mm 4 mps 697 mmHg 34%
02:00 +10°C° 0 mm 4 mps 697 mmHg 34%
03:00 +10°C° 0 mm 4 mps 696 mmHg 34%
04:00 +9°C° 0 mm 3 mps 696 mmHg 35%
05:00 +9°C° 0 mm 3 mps 696 mmHg 35%
06:00 +9°C° 0 mm 3 mps 696 mmHg 34%
07:00 +10°C° 0 mm 3 mps 695 mmHg 33%
08:00 +10°C° 0 mm 3 mps 695 mmHg 32%
09:00 +12°C° 0 mm 4 mps 695 mmHg 29%
10:00 +14°C° 0 mm 5 mps 695 mmHg 26%
11:00 +15°C° 0 mm 7 mps 695 mmHg 23%
12:00 +16°C° 0 mm 8 mps 695 mmHg 22%
13:00 +17°C° 0 mm 9 mps 695 mmHg 21%
14:00 +17°C° 0 mm 10 mps 695 mmHg 20%
15:00 +16°C° 0 mm 9 mps 695 mmHg 22%
16:00 +15°C° 0 mm 8 mps 695 mmHg 23%
17:00 +14°C° 0 mm 7 mps 695 mmHg 25%
18:00 +13°C° 0 mm 6 mps 695 mmHg 35%
19:00 +11°C° 0 mm 4 mps 696 mmHg 45%
20:00 +9°C° 0 mm 3 mps 696 mmHg 54%
21:00 +8°C° 0 mm 2 mps 696 mmHg 56%
22:00 +7°C° 0 mm 2 mps 696 mmHg 58%
23:00 +7°C° 0 mm 1 mps 697 mmHg 59%

27 October, Tuesday

Time Temperature Precipitation Wind Pressure Humidity
00:00 +10°C° 0 mm 4 mps 697 mmHg 34%
01:00 +10°C° 0 mm 4 mps 697 mmHg 34%
02:00 +10°C° 0 mm 4 mps 697 mmHg 34%
03:00 +10°C° 0 mm 4 mps 696 mmHg 34%
04:00 +9°C° 0 mm 3 mps 696 mmHg 35%
05:00 +9°C° 0 mm 3 mps 696 mmHg 35%
06:00 +9°C° 0 mm 3 mps 696 mmHg 34%
07:00 +10°C° 0 mm 3 mps 695 mmHg 33%
08:00 +10°C° 0 mm 3 mps 695 mmHg 32%
09:00 +12°C° 0 mm 4 mps 695 mmHg 29%
10:00 +14°C° 0 mm 5 mps 695 mmHg 26%
11:00 +15°C° 0 mm 7 mps 695 mmHg 23%
12:00 +16°C° 0 mm 8 mps 695 mmHg 22%
13:00 +17°C° 0 mm 9 mps 695 mmHg 21%
14:00 +17°C° 0 mm 10 mps 695 mmHg 20%
15:00 +16°C° 0 mm 9 mps 695 mmHg 22%
16:00 +15°C° 0 mm 8 mps 695 mmHg 23%
17:00 +14°C° 0 mm 7 mps 695 mmHg 25%
18:00 +13°C° 0 mm 6 mps 695 mmHg 35%
19:00 +11°C° 0 mm 4 mps 696 mmHg 45%
20:00 +9°C° 0 mm 3 mps 696 mmHg 54%
21:00 +8°C° 0 mm 2 mps 696 mmHg 56%
22:00 +7°C° 0 mm 2 mps 696 mmHg 58%
23:00 +7°C° 0 mm 1 mps 697 mmHg 59%

28 October, Wednesday

Time Temperature Precipitation Wind Pressure Humidity
00:00 +7°C° 0 mm 1 mps 697 mmHg 58%
01:00 +7°C° 0 mm 1 mps 697 mmHg 56%
02:00 +7°C° 0 mm 1 mps 697 mmHg 54%
03:00 +7°C° 0 mm 1 mps 697 mmHg 53%
04:00 +6°C° 0 mm 1 mps 697 mmHg 52%
05:00 +5°C° 0 mm 2 mps 698 mmHg 52%
06:00 +5°C° 0 mm 2 mps 698 mmHg 51%
07:00 +4°C° 0 mm 2 mps 698 mmHg 51%
08:00 +4°C° 0 mm 2 mps 699 mmHg 51%
09:00 +4°C° 0 mm 3 mps 699 mmHg 44%
10:00 +5°C° 0 mm 5 mps 700 mmHg 36%
11:00 +5°C° 0 mm 6 mps 700 mmHg 29%
12:00 +5°C° 0 mm 6 mps 700 mmHg 27%
13:00 +5°C° 0 mm 7 mps 700 mmHg 25%
14:00 +5°C° 0 mm 7 mps 700 mmHg 24%
15:00 +4°C° 0 mm 7 mps 701 mmHg 28%
16:00 +3°C° 0 mm 6 mps 701 mmHg 32%
17:00 +2°C° 0 mm 6 mps 701 mmHg 37%
18:00 +1°C° 0 mm 5 mps 701 mmHg 41%
19:00 0°C° 0 mm 4 mps 702 mmHg 46%
20:00 0°C° 0 mm 3 mps 702 mmHg 50%
21:00 -1°C° 0 mm 2 mps 702 mmHg 52%
22:00 -1°C° 0 mm 2 mps 702 mmHg 54%
23:00 -2°C° 0 mm 2 mps 702 mmHg 56%

29 October, Thursday

Time Temperature Precipitation Wind Pressure Humidity
00:00 -2°C° 0 mm 2 mps 702 mmHg 59%
01:00 -2°C° 0 mm 2 mps 702 mmHg 61%
02:00 -3°C° 0 mm 2 mps 702 mmHg 64%
03:00 -3°C° 0 mm 2 mps 702 mmHg 66%
04:00 -1°C° 0 mm 1 mps 703 mmHg 68%
05:00 -1°C° 0 mm 1 mps 703 mmHg 70%
06:00 -1°C° 0 mm 1 mps 703 mmHg 69%
07:00 -1°C° 0 mm 1 mps 704 mmHg 68%
08:00 0°C° 0 mm 1 mps 704 mmHg 67%
09:00 +1°C° 0 mm 1 mps 705 mmHg 62%
10:00 +1°C° 0 mm 2 mps 705 mmHg 57%
11:00 +3°C° 0 mm 2 mps 705 mmHg 51%
12:00 +3°C° 0 mm 2 mps 705 mmHg 47%
13:00 +4°C° 0 mm 2 mps 705 mmHg 42%
14:00 +3°C° 0 mm 3 mps 706 mmHg 38%
15:00 +2°C° 0 mm 3 mps 706 mmHg 41%
16:00 +1°C° 0 mm 3 mps 706 mmHg 44%
17:00 0°C° 0 mm 3 mps 706 mmHg 48%
18:00 -1°C° 0 mm 3 mps 706 mmHg 51%
19:00 -4°C° 0 mm 3 mps 707 mmHg 55%
20:00 -5°C° 0 mm 3 mps 707 mmHg 59%
21:00 -5°C° 0 mm 3 mps 707 mmHg 60%
22:00 -6°C° 0 mm 3 mps 707 mmHg 62%
23:00 -6°C° 0 mm 3 mps 707 mmHg 64%
Show more